Wetbulb
51.00 45.61 43.50 47.09 49.82 52.09 57.37 56.04 55.75 57.88 60.34 58.14 57.03 57.43 58.70 61.04 62.62 60.57 60.43 61.80 61.93 62.99 65.05 68.07 69.36 70.11 70.37 70.58 71.43 71.09 70.23 71.76 72.45 70.93 69.02 69.39 69.74 72.44 71.98 72.43 73.09 74.00 71.76 68.23
45.75 44.21 49.42 51.76 52.77 52.51 57.13 56.02 55.25 58.20 59.86 58.05 56.83 56.58 59.85 60.99 60.50 62.32 60.60 61.68 62.09 63.24 64.18 66.46 68.76 69.83 69.81 69.53 71.18 71.06 71.46 71.75 71.38 70.77 70.51 71.00 71.98 71.75 73.55 72.67 73.69 73.43 73.20 73.17
44.03 47.48 51.81 50.04 48.92 50.95 55.84 55.31 54.97 54.82 57.92 57.89 56.05 53.98 56.28 59.58 60.54 61.68 61.92 63.89 62.54 63.67 63.49 66.00 68.07 68.89 69.29 69.07 70.04 71.70 70.78 70.98 70.90 70.02 71.42 71.00 71.75 70.10 70.69 71.85 70.96 72.80 73.54 73.00
45.93 49.87 49.75 47.93 47.40 48.78 51.70 58.73 58.04 56.30 53.07 48.74 56.06 47.35 54.25 57.12 58.02 59.22 60.08 63.34 63.70 63.59 64.69 66.11 67.54 68.70 69.42 69.00 69.89 71.73 71.85 71.52 70.34 69.05 69.49 69.05 68.35 67.25 70.34 71.14 71.60 72.13 73.13 73.25
44.11 46.65 46.54 46.98 48.07 50.29 55.31 56.63 58.10 56.78 53.16 52.31 52.27 50.14 53.34 57.07 55.47 57.61 59.12 62.68 63.30 64.34 66.10 65.73 66.72 69.82 70.99 70.39 71.15 72.55 71.77 71.86 72.03 71.14 70.77 69.17 68.97 69.53 71.03 71.63 73.01 73.36 72.37 72.21
47.54 51.03 48.10 48.44 51.41 54.85 60.70 57.35 56.37 55.33 51.79 45.80 50.70 50.45 51.33 52.64 56.00 58.33 59.06 61.24 63.65 64.11 65.28 66.79 66.78 69.05 71.06 72.15 72.67 73.18 72.10 71.57 72.17 71.72 71.42 70.21 69.91 70.59 69.52 70.72 72.00 71.41 72.02 71.94
46.58 46.65 49.11 51.36 47.85 53.55 58.55 51.82 43.61 41.57 44.27 42.53 50.95 48.99 51.70 57.92 59.38 60.05 58.64 60.19 63.60 65.47 64.82 65.92 65.99 66.53 68.21 71.05 72.44 73.15 72.74 72.13 72.89 71.71 71.52 71.53 70.65 70.24 69.90 70.43 70.25 70.70 71.52 71.22
39.90 38.81 46.15 52.26 48.55 46.52 49.94 51.98 45.35 39.42 41.93 46.57 52.41 48.45 51.72 60.79 63.18 62.66 61.02 61.41 64.04 64.60 64.58 65.59 67.11 66.62 68.47 69.28 72.61 72.97 72.13 72.34 72.73 72.81 72.47 72.15 71.43 70.63 70.75 70.83 71.48 72.21 71.89 71.48
42.95 43.25 49.29 52.48 52.70 50.70 47.42 47.48 53.74 47.02 49.94 45.46 49.67 53.46 59.35 62.32 61.87 62.30 61.47 61.68 63.17 64.38 64.76 65.73 66.87 67.01 68.18 69.50 70.78 72.34 72.37 71.55 71.94 73.01 72.46 72.03 72.34 71.59 71.63 72.26 72.10 72.98 72.82 73.76
46.40 41.33 49.52 51.66 52.60 52.10 48.79 51.35 43.91 43.41 42.13 41.76 47.50 49.99 51.35 57.23 57.45 59.09 59.75 61.00 62.75 63.77 64.23 65.94 66.23 66.23 68.26 70.61 71.09 72.80 72.76 72.17 72.37 72.57 72.56 72.64 72.34 72.14 72.59 72.97 72.36 71.89 72.87 72.98
48.32 44.72 45.60 50.21 46.46 46.16 46.68 44.79 45.14 44.47 45.30 41.95 41.81 46.92 58.48 57.62 59.77 58.48 59.98 61.53 62.00 63.79 65.13 65.61 66.65 68.64 68.19 69.74 71.75 72.52 72.09 72.00 71.85 72.44 72.34 72.29 72.76 72.52 72.88 72.88 72.59 72.81 73.21 73.94
49.88 44.67 40.79 44.59 51.98 51.86 48.87 46.01 45.64 40.50 40.35 44.55 46.11 46.77 60.99 59.91 57.45 60.40 60.34 61.59 62.90 65.59 65.87 67.09 67.20 67.57 67.99 67.45 71.60 72.18 72.33 71.97 71.90 72.49 72.31 72.21 72.58 73.11 72.02 72.42 72.74 73.36 72.99 73.43
48.64 43.93 38.91 41.68 46.38 49.51 45.79 47.17 43.57 43.99 42.32 39.68 43.14 46.88 58.26 60.58 58.16 60.19 59.68 61.37 63.16 65.93 66.56 67.06 66.63 66.82 67.94 69.10 69.06 69.53 70.19 70.15 70.99 71.44 72.60 72.15 72.33 72.48 72.04 71.65 72.73 73.38 72.92 72.93
53.74 43.74 41.48 40.66 43.65 48.64 46.46 49.41 47.34 42.89 38.00 39.33 42.85 48.67 53.84 55.95 57.13 59.03 60.29 62.56 63.82 65.29 65.21 65.77 63.95 64.70 66.55 66.59 67.40 68.28 68.32 69.51 68.90 70.45 70.93 70.23 69.66 70.63 71.26 72.32 72.17 72.56 72.76 72.78
49.17 41.82 44.97 49.02 49.60 50.24 48.73 49.47 50.41 44.01 44.15 40.58 49.11 52.35 55.48 58.28 56.78 56.51 57.43 59.14 63.68 63.66 63.65 66.08 62.26 63.17 65.06 65.46 66.59 70.01 68.57 67.75 69.60 70.19 70.09 69.08 68.91 69.33 71.29 71.43 72.03 72.53 72.88 72.77
50.36 44.06 47.88 46.03 50.59 51.13 49.34 52.33 52.54 52.65 54.98 53.39 54.40 52.18 56.88 59.27 58.35 55.81 58.20 59.10 60.54 64.28 64.39 66.84 66.50 65.59 65.74 65.81 65.41 69.56 69.74 68.26 69.66 68.88 69.65 69.47 69.25 67.87 70.58 71.17 70.85 71.25 71.87 72.23
46.79 46.97 44.50 40.56 49.06 48.54 45.39 48.21 51.14 51.94 56.52 55.70 52.26 51.54 55.65 54.60 54.61 53.63 56.97 57.43 62.80 64.24 66.26 66.42 65.12 65.08 64.88 64.95 67.50 69.02 69.25 69.09 68.30 68.48 69.74 69.87 68.05 67.22 69.67 71.42 71.44 71.89 70.26 70.22
45.55 47.21 44.76 40.60 44.99 36.55 48.37 53.27 53.57 52.07 54.41 56.01 56.22 55.42 56.01 57.54 57.60 58.02 61.37 61.78 61.04 61.56 61.42 62.61 66.48 67.60 68.25 68.72 69.35 68.41 68.90 67.87 68.21 67.69 68.18 68.47 68.37 67.96 69.52 69.95 69.77 68.78 69.59 68.99
50.56 45.64 42.06 39.62 40.25 45.28 48.66 51.28 49.60 46.99 49.72 56.44 56.52 56.36 61.60 61.72 60.60 60.14 62.54 61.43 60.14 59.53 59.14 59.94 61.89 63.06 64.89 66.72 67.49 68.08 68.03 68.36 67.87 67.27 67.90 68.63 68.62 67.04 67.31 66.88 67.87 68.50 67.42 66.92
49.71 48.55 43.85 41.93 36.86 35.92 47.42 52.72 54.66 52.48 44.71 57.07 57.25 57.32 58.70 58.26 53.65 57.63 61.07 60.74 59.34 59.25 58.91 58.67 60.38 61.46 60.94 62.98 65.11 63.69 62.55 62.59 63.34 66.86 67.65 68.45 68.41 67.56 66.52 67.06 67.42 67.06 65.57 64.09
43.18 44.29 40.45 42.44 40.92 45.56 51.56 53.57 55.46 44.50 46.50 58.58 55.23 54.95 56.32 56.07 59.22 59.92 60.44 58.59 58.29 57.65 57.28 58.30 58.56 59.16 59.68 60.76 61.80 60.92 60.12 59.99 62.32 64.36 66.17 66.75 66.77 65.93 66.06 66.79 65.57 63.54 63.62 62.22
42.04 41.00 41.60 43.24 40.26 39.12 53.82 53.12 49.37 52.00 55.28 57.53 55.55 57.00 57.10 59.85 60.69 59.51 59.02 58.11 57.22 56.67 56.73 57.04 56.93 57.08 58.79 59.42 59.26 57.79 57.93 60.49 61.35 61.70 62.46 63.45 64.99 66.05 67.02 66.16 65.34 64.31 62.83 60.48
40.30 44.83 43.85 45.80 45.60 51.77 53.39 52.76 54.74 56.42 55.34 56.38 58.45 60.47 60.62 60.11 58.76 59.22 58.77 58.35 58.01 57.61 57.42 57.50 56.71 56.78 57.71 57.78 57.90 56.94 58.20 59.58 59.75 59.67 59.54 60.56 61.27 58.75 60.63 62.78 65.28 64.91 63.98 61.48
48.72 50.10 44.22 48.30 50.57 51.72 53.26 54.79 54.89 55.74 55.69 56.66 59.78 61.51 60.28 58.89 58.72 59.13 58.92 58.49 57.50 57.89 57.20 57.41 56.79 56.67 56.21 56.40 57.89 57.81 58.35 59.04 57.89 57.23 58.41 59.24 55.26 50.60 48.53 50.53 49.25 47.74 46.92 51.27
48.72 49.53 45.39 48.02 51.32 52.92 54.11 53.87 55.03 55.79 56.70 57.00 58.84 60.95 60.30 59.48 58.29 57.74 56.94 56.58 56.66 56.79 55.51 55.42 54.48 54.84 54.77 54.68 55.11 56.11 57.77 58.62 57.60 57.49 57.66 58.03 56.43 49.79 44.97 42.94 45.00 42.21 39.99 41.16
49.34 47.08 44.67 46.17 52.37 51.72 51.56 53.64 55.29 54.01 54.53 55.63 57.96 60.58 61.45 59.57 58.23 59.12 58.68 57.85 57.10 54.91 54.83 54.00 53.98 54.02 54.72 54.72 54.10 54.68 56.60 57.09 56.46 55.19 56.91 55.53 56.77 53.80 51.98 47.31 43.36 42.87 42.00 41.40
MSLP
1006.22 1006.60 1006.47 1006.39 1006.32 1006.36 1006.79 1008.93 1010.37 1012.16 1013.35 1013.93 1013.60 1013.60 1012.73 1012.14 1011.58 1010.91 1010.85 1010.81 1011.19 1011.61 1012.25 1013.02 1013.87 1014.73 1015.36 1015.99 1016.45 1017.26 1017.80 1017.81 1018.25 1018.32 1018.42 1018.48 1019.00 1019.15 1019.34 1019.08 1019.22 1019.65 1020.15 1020.39
1006.65 1006.30 1005.91 1005.56 1005.37 1005.77 1007.03 1009.05 1011.19 1012.50 1013.03 1014.13 1014.32 1014.04 1013.09 1012.77 1012.42 1011.91 1011.15 1010.79 1011.07 1011.42 1012.13 1012.96 1013.81 1014.63 1015.35 1016.03 1016.52 1017.37 1017.63 1017.86 1018.33 1018.63 1018.75 1018.85 1019.17 1019.19 1019.23 1019.32 1019.36 1019.40 1019.72 1019.80
1006.13 1004.87 1004.87 1004.75 1004.78 1005.25 1007.11 1009.61 1010.87 1011.61 1013.29 1014.23 1014.47 1015.11 1014.57 1012.92 1012.68 1012.17 1011.65 1010.97 1010.59 1011.07 1011.94 1012.96 1013.81 1014.47 1015.34 1016.05 1016.41 1017.16 1017.63 1017.86 1018.68 1019.19 1019.19 1019.09 1019.55 1019.86 1019.88 1019.83 1019.71 1019.50 1019.33 1019.38
1005.39 1004.14 1004.21 1003.91 1004.11 1004.63 1007.16 1009.14 1010.37 1011.63 1012.73 1013.87 1014.47 1014.63 1014.50 1013.70 1012.93 1012.32 1011.77 1011.21 1010.78 1010.82 1011.55 1012.54 1013.57 1014.42 1015.14 1015.77 1016.13 1016.77 1017.57 1018.17 1019.35 1019.03 1019.69 1019.93 1019.79 1020.15 1020.25 1020.15 1019.95 1019.67 1019.49 1019.58
1004.72 1003.71 1003.35 1003.24 1003.38 1003.70 1007.14 1008.19 1010.87 1011.25 1012.45 1013.51 1014.45 1014.41 1013.54 1013.21 1012.58 1011.57 1011.33 1011.13 1010.86 1010.75 1011.19 1012.11 1013.04 1014.01 1014.77 1015.37 1015.92 1016.39 1017.30 1018.20 1019.21 1019.39 1019.64 1020.05 1020.03 1019.88 1019.95 1020.12 1020.20 1020.03 1019.87 1019.73
1004.08 1003.27 1002.91 1002.50 1002.65 1003.36 1005.83 1009.50 1010.97 1011.74 1012.11 1013.22 1012.91 1014.00 1012.20 1011.49 1009.89 1010.42 1010.38 1010.93 1010.91 1010.87 1011.27 1011.78 1012.44 1013.32 1014.39 1015.16 1015.87 1016.37 1017.04 1017.92 1018.66 1019.38 1019.69 1020.17 1019.86 1019.79 1020.22 1020.28 1020.38 1020.25 1020.16 1019.99
1004.19 1003.42 1002.72 1002.34 1002.62 1003.94 1005.05 1008.27 1010.15 1011.64 1012.37 1012.59 1012.23 1012.73 1009.17 1008.95 1008.87 1009.07 1009.44 1010.51 1010.81 1010.81 1011.12 1011.62 1012.21 1012.96 1013.69 1014.65 1015.69 1016.49 1016.97 1017.67 1018.32 1018.83 1019.10 1019.49 1019.73 1019.72 1019.86 1020.07 1020.23 1020.26 1020.37 1020.11
1004.70 1003.76 1002.80 1002.16 1002.52 1003.21 1004.67 1005.93 1007.71 1009.63 1011.65 1012.18 1011.09 1011.10 1008.96 1007.32 1006.97 1007.95 1008.80 1009.88 1010.75 1010.88 1010.89 1011.51 1011.71 1012.55 1013.39 1014.06 1015.13 1015.96 1016.84 1017.42 1017.94 1018.43 1018.81 1019.01 1019.40 1019.82 1019.74 1019.83 1020.01 1020.00 1020.06 1019.85
1004.41 1003.54 1002.53 1002.20 1002.30 1002.80 1003.49 1004.44 1005.26 1008.09 1010.88 1012.09 1011.69 1010.77 1008.13 1006.62 1006.61 1007.74 1008.60 1009.68 1010.33 1010.40 1010.68 1011.16 1011.55 1012.16 1013.01 1013.81 1014.75 1015.47 1016.35 1017.03 1017.55 1018.00 1018.45 1018.88 1019.17 1019.53 1019.76 1019.79 1019.91 1019.67 1019.56 1019.40
1004.40 1003.95 1002.84 1002.13 1001.87 1002.17 1002.78 1003.48 1004.53 1005.99 1008.83 1010.44 1009.90 1009.57 1009.01 1008.72 1008.96 1008.94 1009.19 1009.46 1009.96 1010.19 1010.53 1010.80 1011.31 1011.86 1012.97 1013.25 1014.19 1014.98 1015.60 1016.16 1016.66 1017.45 1018.13 1018.54 1018.99 1019.33 1019.42 1019.52 1019.69 1019.57 1019.39 1019.27
1005.04 1004.75 1003.66 1002.86 1002.08 1002.64 1002.91 1003.30 1004.23 1005.43 1006.59 1007.53 1008.91 1008.96 1008.54 1009.18 1009.71 1010.13 1010.56 1010.59 1010.08 1010.12 1010.25 1010.63 1011.04 1011.88 1012.86 1013.20 1014.04 1014.83 1015.42 1016.00 1016.67 1017.04 1017.91 1018.46 1018.72 1018.94 1019.20 1019.24 1019.29 1019.47 1019.55 1019.53
1006.00 1005.67 1005.18 1003.83 1002.71 1002.18 1002.79 1003.35 1004.14 1005.59 1006.21 1006.30 1006.94 1007.81 1008.04 1008.49 1008.78 1008.88 1009.49 1010.03 1010.20 1009.65 1009.56 1010.39 1011.15 1011.79 1012.85 1013.71 1013.98 1014.63 1015.44 1015.78 1016.22 1016.84 1017.43 1018.05 1018.43 1018.69 1018.87 1019.02 1019.01 1019.09 1019.35 1019.31
1007.39 1006.86 1006.25 1004.96 1003.52 1002.91 1003.07 1003.27 1003.70 1004.44 1005.06 1006.11 1007.09 1007.95 1008.54 1009.72 1009.90 1008.75 1008.14 1009.55 1009.92 1010.29 1010.26 1010.49 1011.61 1012.49 1013.33 1014.42 1014.84 1015.31 1015.60 1015.75 1016.21 1016.71 1017.24 1017.90 1018.26 1018.53 1018.74 1018.79 1018.93 1019.06 1019.26 1019.33
1007.75 1007.89 1007.92 1007.48 1006.73 1005.51 1004.76 1004.24 1003.82 1004.44 1005.26 1005.97 1006.61 1007.99 1008.84 1010.63 1011.38 1011.59 1011.14 1011.07 1010.04 1009.31 1010.02 1011.16 1011.96 1012.91 1013.77 1014.36 1015.36 1015.88 1015.83 1015.73 1016.13 1016.79 1017.22 1017.83 1018.59 1018.62 1018.84 1018.79 1018.80 1018.89 1019.29 1019.45
1008.29 1008.40 1008.08 1007.77 1006.88 1005.99 1005.43 1005.22 1004.89 1004.60 1004.84 1005.79 1006.94 1007.98 1009.71 1011.03 1011.99 1012.03 1011.44 1011.09 1010.67 1010.43 1011.53 1012.17 1012.33 1012.70 1013.31 1014.23 1015.46 1016.12 1016.65 1016.60 1016.99 1017.44 1017.48 1017.46 1018.06 1018.16 1018.49 1018.85 1018.93 1018.85 1018.95 1019.22
1008.62 1008.52 1008.44 1008.31 1007.61 1006.64 1006.25 1006.40 1006.07 1005.08 1006.11 1006.15 1007.21 1009.18 1010.01 1010.83 1011.11 1010.28 1011.04 1012.44 1012.44 1010.92 1012.03 1012.89 1013.35 1013.38 1013.90 1013.92 1014.58 1016.59 1016.68 1017.01 1017.67 1018.14 1017.67 1017.56 1018.28 1018.22 1018.46 1018.80 1019.39 1019.11 1019.11 1019.19
1009.82 1009.45 1009.88 1009.86 1009.17 1008.29 1008.32 1009.23 1008.77 1008.65 1007.75 1007.45 1008.37 1009.91 1010.58 1011.72 1011.42 1010.81 1011.02 1013.27 1011.74 1010.87 1012.15 1013.08 1013.30 1013.80 1014.29 1014.40 1014.29 1016.41 1016.74 1017.54 1017.95 1018.07 1017.80 1017.85 1018.28 1018.70 1019.01 1018.96 1019.75 1019.76 1019.33 1019.37
1010.24 1010.59 1010.94 1011.27 1010.58 1010.41 1010.87 1010.23 1010.02 1010.25 1009.77 1009.72 1010.09 1010.74 1011.27 1012.21 1012.83 1012.93 1012.61 1012.53 1012.95 1013.43 1013.58 1014.04 1014.41 1014.41 1014.21 1014.76 1015.34 1016.41 1017.20 1017.85 1018.31 1018.56 1018.20 1017.85 1018.11 1018.65 1018.83 1019.36 1019.95 1020.00 1019.88 1019.67
1010.83 1010.66 1011.96 1012.42 1012.17 1011.71 1011.12 1011.34 1011.00 1010.97 1010.87 1010.76 1011.16 1011.51 1011.76 1012.22 1013.13 1013.87 1014.01 1013.99 1014.64 1015.33 1015.12 1015.33 1015.16 1015.45 1015.44 1015.63 1015.83 1016.14 1016.59 1016.87 1017.70 1018.29 1017.91 1018.06 1018.34 1018.84 1019.19 1019.51 1020.00 1020.12 1020.16 1020.35
1011.62 1011.73 1012.34 1013.50 1013.70 1013.27 1012.47 1011.55 1011.16 1010.84 1011.49 1011.08 1011.33 1011.95 1012.12 1012.30 1013.09 1014.57 1014.85 1015.29 1016.00 1016.30 1016.15 1016.47 1016.49 1016.39 1016.31 1016.62 1016.79 1016.71 1017.20 1017.25 1018.17 1018.13 1018.03 1018.25 1018.57 1019.03 1019.43 1019.83 1020.04 1020.28 1020.24 1020.61
1013.67 1013.89 1014.88 1013.91 1013.16 1013.25 1012.05 1011.69 1010.78 1011.41 1012.29 1011.80 1012.10 1012.49 1012.54 1012.91 1013.58 1014.36 1015.25 1015.99 1016.73 1017.36 1017.52 1017.67 1017.08 1017.87 1017.73 1017.57 1017.73 1017.89 1017.99 1018.39 1018.57 1018.33 1018.44 1018.71 1019.02 1019.32 1019.69 1019.92 1020.27 1020.45 1020.93 1021.56
1014.78 1014.91 1015.06 1014.25 1013.94 1012.97 1011.59 1011.62 1011.20 1011.89 1010.98 1011.80 1012.71 1012.63 1012.75 1013.57 1014.25 1014.87 1015.00 1015.45 1016.45 1017.08 1017.68 1017.84 1017.69 1018.42 1018.76 1018.66 1018.77 1018.93 1019.14 1019.24 1019.16 1018.89 1018.77 1018.93 1019.31 1019.67 1020.04 1020.13 1020.53 1020.92 1021.39 1021.79
1013.67 1014.05 1014.75 1015.79 1015.21 1012.81 1011.90 1011.79 1010.99 1011.25 1011.48 1011.80 1011.89 1012.14 1012.88 1013.73 1014.53 1015.17 1015.64 1015.79 1016.53 1016.75 1017.15 1017.59 1018.07 1018.89 1018.94 1019.31 1019.51 1019.67 1019.66 1019.74 1019.64 1019.65 1019.67 1019.75 1019.99 1020.48 1020.63 1020.55 1020.90 1021.25 1021.48 1022.16
1013.20 1013.63 1014.15 1014.16 1014.44 1012.67 1011.70 1011.33 1011.05 1011.45 1011.77 1011.51 1011.53 1012.12 1013.08 1013.81 1014.55 1015.09 1015.94 1016.46 1017.06 1017.17 1017.46 1018.19 1018.82 1019.35 1019.46 1019.60 1019.88 1020.05 1020.06 1019.97 1020.02 1020.29 1020.30 1020.62 1020.99 1021.52 1021.81 1021.89 1022.22 1022.68 1022.71 1022.98
1011.62 1012.40 1013.19 1012.93 1012.49 1011.87 1011.70 1011.43 1011.56 1011.94 1012.07 1011.66 1011.60 1012.20 1013.09 1014.23 1014.97 1015.74 1016.30 1016.73 1017.26 1017.75 1018.30 1018.84 1019.20 1019.56 1019.67 1019.72 1019.82 1019.65 1020.03 1020.06 1020.27 1020.49 1020.63 1020.87 1021.29 1022.15 1022.70 1023.14 1023.51 1023.81 1024.17 1024.23
1010.57 1010.67 1011.17 1011.84 1011.35 1011.37 1011.70 1011.47 1011.50 1011.87 1012.06 1012.34 1012.54 1013.16 1013.92 1014.83 1015.58 1016.12 1016.49 1016.89 1017.42 1018.03 1018.68 1019.25 1019.57 1019.88 1020.18 1020.31 1020.29 1019.92 1020.05 1020.13 1020.38 1020.39 1020.76 1021.14 1021.45 1021.93 1022.67 1023.22 1024.13 1024.35 1024.33 1024.27
Wind_Speed
4 2 8 11 12 16 7 7 14 9 8 5 2 2 11 7 9 13 10 12 12 13 12 18 17 16 11 9 13 13 8 6 4 2 2 3 3 3 3 4 7 7 6 6
2 10 12 15 15 15 14 11 11 8 16 3 5 6 11 11 6 8 6 13 14 11 13 16 17 15 13 9 12 9 7 7 4 3 1 2 2 3 2 3 4 6 7 5
9 13 18 15 13 14 15 17 11 11 11 7 10 4 8 11 8 10 7 5 10 19 16 16 18 18 13 12 11 10 8 8 4 2 3 3 4 3 3 1 1 3 5 4
9 15 14 11 10 8 4 13 14 21 9 5 9 2 6 10 16 8 9 6 4 17 15 17 18 18 15 13 11 11 9 8 6 6 1 4 3 4 3 3 2 3 3 3
12 10 9 9 10 13 10 26 17 20 6 9 5 2 4 11 18 20 13 6 6 15 17 15 20 20 17 15 14 13 10 8 11 8 7 5 3 2 3 2 4 3 2 3
10 10 7 8 7 4 19 18 9 4 4 3 11 4 8 13 28 21 14 10 8 8 13 16 12 20 18 15 14 13 14 9 10 11 12 9 7 5 3 3 4 4 3 4
9 11 9 9 3 11 19 12 2 1 3 5 4 9 17 13 18 24 22 14 12 13 10 13 14 15 15 20 17 13 13 12 9 8 8 8 7 4 7 7 4 3 3 3
6 7 7 3 5 7 12 10 6 5 2 5 6 7 8 16 15 20 21 15 14 15 11 14 15 11 16 15 19 17 13 12 12 8 8 7 8 5 4 6 4 5 5 4
4 6 6 10 9 8 10 6 15 10 5 4 7 5 16 9 12 17 19 17 18 14 15 14 14 13 9 15 18 18 15 11 11 8 7 6 6 6 5 6 4 4 5 6
8 4 8 6 8 11 7 6 2 3 8 5 8 7 3 10 5 4 14 18 16 10 13 15 17 12 9 19 17 17 16 16 14 11 7 6 6 5 4 4 4 2 2 3
7 4 11 9 5 8 5 5 3 1 3 4 4 4 7 17 5 3 8 9 13 13 14 15 17 14 10 11 16 15 14 12 9 9 8 7 6 7 5 4 4 1 2 5
8 3 5 8 9 11 8 8 7 6 9 2 6 5 8 16 11 9 14 15 12 16 11 15 17 16 9 7 14 15 12 13 9 8 8 7 7 6 6 5 6 4 3 3
7 6 6 12 8 6 5 8 6 5 2 5 3 5 13 11 12 17 18 16 14 12 11 13 11 11 8 7 7 7 8 8 8 6 8 7 7 6 7 6 6 5 5 6
4 4 4 2 8 10 8 12 9 5 2 5 4 5 10 9 10 3 9 13 11 19 17 15 15 12 9 8 6 3 4 6 7 6 7 7 5 3 1 5 5 7 6 5
3 6 5 7 11 9 7 14 14 8 9 5 6 6 9 9 8 4 8 19 13 13 14 14 16 15 13 7 6 5 2 6 6 5 6 7 4 1 4 6 6 5 6 6
5 4 6 5 12 10 6 13 21 16 15 10 12 7 2 8 2 11 10 22 21 17 11 13 14 16 13 14 11 5 10 3 3 5 8 7 5 7 2 3 9 5 1 4
3 3 5 0 8 10 4 14 18 12 17 5 5 5 6 7 8 6 16 7 4 13 13 14 12 11 8 6 12 12 13 9 4 5 5 7 8 8 8 5 2 6 6 3
3 1 2 2 7 2 1 13 10 13 13 15 14 11 8 11 7 6 7 8 11 12 10 9 8 8 9 6 7 7 11 10 7 6 6 5 5 4 5 6 4 1 4 1
14 3 3 2 1 2 4 5 6 8 6 7 7 7 12 11 11 12 9 11 10 10 9 8 7 7 9 7 7 8 6 7 7 5 6 4 5 5 5 6 4 4 6 6
11 14 2 5 5 1 3 10 8 5 6 4 6 6 6 5 5 4 9 12 11 10 8 7 7 7 10 7 7 11 7 8 6 5 5 6 6 6 7 5 5 4 6 8
5 4 8 8 4 3 5 9 9 4 4 9 7 7 3 5 4 6 13 14 12 8 8 6 9 7 7 7 7 8 6 7 4 4 5 6 5 6 5 6 5 5 6 6
1 2 4 4 4 3 2 7 2 4 5 12 5 4 5 8 9 11 10 13 11 10 8 8 9 7 5 6 7 7 8 4 5 5 8 7 6 5 4 6 5 6 6 6
2 6 6 8 6 5 3 4 5 5 5 3 8 9 10 11 11 12 8 10 7 8 7 8 8 7 7 6 5 6 3 3 5 8 8 9 9 8 8 6 4 5 4 4
2 3 4 5 9 8 7 7 9 8 6 7 9 16 12 12 11 11 7 8 7 8 8 6 7 8 7 6 6 5 4 5 6 6 6 6 9 8 8 7 7 6 6 4
7 9 8 3 5 4 7 8 7 7 8 9 8 12 12 10 11 9 9 8 6 6 6 6 6 5 5 6 6 6 5 5 5 5 4 5 7 7 7 8 5 6 4 3
1 3 2 4 6 5 5 6 5 8 8 7 9 12 12 9 8 6 6 6 6 6 6 6 7 7 5 4 3 3 4 5 4 5 4 3 4 5 5 5 4 9 7 7
Wind_Direction
181 147 215 237 240 256 102 93 101 122 120 100 63 295 275 331 345 162 192 160 155 152 150 135 141 139 133 111 127 142 167 136 141 105 63 53 87 107 115 141 151 147 164 161
227 225 231 235 244 244 77 110 115 127 152 106 133 274 314 310 299 303 199 174 167 152 147 144 145 141 142 132 129 142 145 143 137 114 115 91 85 54 134 152 157 169 154 189
216 243 219 236 251 251 134 165 204 147 137 93 130 300 267 295 274 275 294 257 177 158 159 141 150 150 157 143 148 139 150 158 129 85 7 57 77 36 54 109 192 203 154 165
235 258 246 217 252 244 121 10 180 145 137 148 238 157 208 247 260 249 256 229 233 162 159 152 155 155 161 166 161 147 152 151 115 124 349 298 167 142 187 175 204 210 185 193
252 251 264 265 217 253 134 107 219 162 120 110 237 112 232 219 248 234 223 177 210 167 153 159 157 163 170 165 168 160 159 160 138 165 197 235 246 195 177 170 177 185 206 206
247 283 248 256 240 84 143 131 115 62 87 132 177 181 236 205 221 222 216 177 215 185 162 170 156 150 169 165 167 164 159 168 154 164 186 189 209 202 169 187 178 177 190 221
278 265 277 236 288 140 120 136 115 34 54 247 183 160 241 231 215 211 210 182 201 192 186 172 163 168 162 166 167 161 162 160 158 168 177 173 179 194 152 164 183 185 204 222
223 289 262 283 215 219 175 167 220 131 89 327 143 211 263 296 209 199 203 185 204 194 191 175 181 154 169 168 165 161 164 158 160 173 186 177 167 176 191 203 171 208 213 212
327 254 241 213 213 221 264 187 228 101 47 67 298 320 311 4 146 176 187 186 201 200 193 190 187 181 161 170 163 159 160 162 166 170 167 177 183 169 209 223 195 193 205 187
276 306 285 277 200 235 192 252 239 291 150 172 196 181 223 18 14 127 184 187 204 207 194 191 189 191 162 162 163 161 161 168 170 158 165 176 179 172 185 172 187 192 101 169
332 354 287 343 164 194 290 297 311 179 207 190 118 272 184 143 160 5 307 282 228 219 214 189 184 182 174 154 153 160 163 157 162 147 154 166 181 174 194 195 211 250 150 144
356 270 304 273 293 179 205 227 220 134 284 233 164 222 161 152 156 161 211 251 261 241 210 165 161 165 171 142 156 161 161 162 159 144 159 172 171 178 186 208 200 197 195 175
341 335 344 329 338 2 207 256 259 241 288 262 191 245 125 184 165 210 211 233 243 169 123 123 130 150 123 101 96 120 126 119 120 111 161 178 188 181 198 214 206 200 187 192
17 258 219 194 255 288 311 325 260 251 240 256 276 167 153 166 157 244 307 264 222 144 138 131 121 115 97 103 99 130 156 132 130 99 123 122 89 33 266 222 218 192 189 190
337 263 286 336 253 303 291 302 318 258 251 215 174 111 100 129 147 178 63 20 261 120 125 132 137 133 132 130 109 95 150 15 51 77 135 131 186 219 342 349 321 208 186 187
292 283 28 344 359 305 315 8 16 3 5 35 91 80 170 166 162 42 33 14 295 128 134 138 150 156 163 161 144 140 110 297 196 191 153 146 201 200 195 305 297 297 71 190
270 50 24 131 336 324 66 360 38 43 23 33 55 66 126 69 68 57 70 293 352 61 112 147 157 150 151 181 134 155 146 150 161 169 142 150 171 182 202 131 295 320 279 221
254 75 52 290 345 214 163 17 41 60 46 41 65 57 66 87 99 80 33 72 35 36 49 64 120 129 124 136 122 143 137 139 135 159 151 143 129 140 125 135 143 183 270 39
333 173 129 127 292 218 5 21 359 24 6 69 80 62 98 106 105 59 76 71 73 52 51 48 45 65 71 64 74 81 98 115 130 158 130 139 123 112 100 108 117 131 110 71
354 37 67 138 103 170 278 310 322 346 14 52 101 75 97 38 59 95 93 87 81 71 58 49 58 49 55 55 95 84 63 73 64 80 117 123 125 119 122 109 84 92 99 111
330 14 347 282 130 181 238 274 301 49 222 90 97 110 86 95 136 127 105 90 88 92 95 90 71 55 58 57 68 90 81 67 47 74 94 107 117 119 129 118 113 103 94 101
116 92 223 26 39 86 277 295 86 216 55 122 155 146 123 107 109 105 99 102 103 101 97 91 96 89 76 70 92 83 75 46 44 43 72 74 83 87 122 127 122 133 131 122
79 168 142 112 271 265 83 113 71 75 55 19 164 165 147 131 114 117 105 108 119 117 118 113 108 107 92 90 97 111 106 88 72 63 43 53 52 41 28 53 144 142 124 127
256 141 118 128 234 236 110 73 62 59 30 17 101 132 137 131 126 124 129 129 144 132 123 117 117 117 111 111 116 120 128 110 95 92 79 72 73 54 43 48 48 55 42 31
192 147 165 205 227 119 77 76 77 70 42 19 36 123 126 128 129 137 134 122 118 115 124 121 117 112 118 123 125 122 142 142 121 117 117 105 99 95 81 62 39 85 67 56
248 178 114 210 163 143 123 89 44 64 68 29 63 108 113 119 128 137 134 135 141 134 118 115 117 124 137 134 138 137 144 143 155 150 145 153 134 123 141 134 114 61 82 59